Location: Unspecified
(0.0000°N, 0.0000°E)
Time: 18:45:06
(UTC+00:00)

COSMOS 2416 - Pass Details

Date: 25 May 2026
Orbit: 1436 x 1449 km, 82.5° (Epoch: 10 June)

Event Time Altitude Azimuth Distance (km) Brightness Sun altitude
Rises 18:37:52 0° 325° (NW) 4,517 10.3 -9.5°
Reaches altitude 10° 18:41:46 10° 308° (NW) 3,540 10.1 -10.4°
Maximum altitude 18:47:16 19° 267° (W) 2,894 9.2 -11.7°
Drops below altitude 10° 18:52:48 10° 225° (SW) 3,545 9.0 -13.0°
Sets 18:56:46 0° 208° (SSW) 4,525 9.4 -13.9°
